FW2451 Weather Reports


time (UTC)temp
C
wind
direction
speed
KPH
gust
KPH
rain 1hr
cm
rain 24hr
cm
rain mn
cm
humidity
%
barometer
mb
20260506000002 17 299 1.6 6.4 0.00 0.00 0.00 68 1016.8
20260505234502 16 325 1.6 6.4 0.00 0.00 0.00 68 1016.9
20260505233007 16 360 1.6 8.0 0.00 0.00 0.00 69 1016.9
20260505231503 16 28 1.6 12.9 0.00 0.00 0.00 69 1017.0
20260505230038 17 36 4.8 8.0 0.00 0.00 0.00 68 1017.0
20260505224533 17 260 1.6 6.4 0.00 0.00 0.00 69 1017.0
20260505223028 17 22 1.6 4.8 0.00 0.00 0.00 69 1017.1
20260505221525 16 28 1.6 6.4 0.00 0.00 0.00 70 1017.2
20260505220026 16 74 0.0 4.8 0.00 0.00 0.00 71 1017.3
20260505214521 16 40 1.6 4.8 0.00 0.00 0.00 73 1017.3
20260505213024 15 84 0.0 4.8 0.00 0.00 0.00 73 1017.5
20260505211521 16 74 0.0 4.8 0.00 0.00 0.00 72 1017.6
20260505210018 16 78 0.0 4.8 0.00 0.00 0.00 71 1017.4
20260505204516 16 273 0.0 4.8 0.00 0.00 0.00 70 1017.4
20260505203025 16 169 0.0 6.4 0.00 0.00 0.00 70 1017.5
20260505201517 16 66 1.6 4.8 0.00 0.00 0.00 69 1017.5
20260505200012 16 148 0.0 4.8 0.00 0.00 0.00 70 1017.7
20260505194511 16 238 0.0 6.4 0.00 0.00 0.00 69 1017.9
20260505193006 16 221 0.0 4.8 0.00 0.00 0.00 71 1017.9
20260505191504 15 78 0.0 4.8 0.00 0.00 0.00 71 1017.9
20260505190003 15 35 1.6 8.0 0.00 0.00 0.00 73 1017.8
20260505184603 15 66 0.0 6.4 0.00 0.00 0.00 73 1017.7
20260505183113 14 47 1.6 8.0 0.00 0.00 0.00 73 1017.8
20260505181551 14 360 0.0 12.9 0.00 0.00 0.00 73 1017.7
20260505180048 14 26 3.2 9.7 0.00 0.00 0.00 72 1017.6
20260505174546 14 88 0.0 3.2 0.00 0.00 0.00 72 1017.5
20260505173048 13 105 0.0 4.8 0.00 0.00 0.00 73 1017.3
20260505171545 13 113 0.0 4.8 0.00 0.00 0.00 74 1017.3
20260505170038 13 111 0.0 4.8 0.00 0.00 0.00 73 1017.3
20260505164536 13 111 1.6 3.2 0.00 0.00 0.00 74 1017.2
20260505163032 13 107 0.0 3.2 0.00 0.00 0.00 74 1017.1
20260505161531 13 107 0.0 3.2 0.00 0.00 0.00 75 1017.2
20260505153055 12 105 0.0 3.2 0.00 0.00 0.00 77 1016.9
20260505151609 12 105 0.0 3.2 0.00 0.00 0.00 78 1017.0
20260505124532 11 24 0.0 3.2 0.00 0.00 0.00 77 1016.1
20260505123032 11 25 0.0 0.0 0.00 0.00 0.00 78 1016.2
20260505121536 11 24 0.0 0.0 0.00 0.00 0.00 77 1016.1
20260505120059 12 24 0.0 4.8 0.00 0.00 0.00 77 1016.3
20260505114538 12 25 0.0 4.8 0.00 0.00 0.00 77 1016.4
20260505113043 12 26 0.0 4.8 0.00 0.00 0.00 76 1016.5
20260505111536 12 26 0.0 1.6 0.00 0.00 0.00 76 1016.3
20260505101529 12 51 1.6 6.4 0.00 0.00 0.00 74 1016.4
20260505100028 12 19 1.6 8.0 0.00 0.00 0.00 74 1016.5
20260505094524 12 308 0.0 6.4 0.00 0.00 0.00 73 1016.5
20260505093024 12 326 0.0 8.0 0.00 0.00 0.00 72 1016.7
20260505091528 12 342 1.6 11.3 0.00 0.00 0.00 72 1016.6
20260505090037 12 344 3.2 11.3 0.00 0.00 0.00 71 1016.9
20260505084521 12 355 1.6 8.0 0.00 0.00 0.00 71 1016.8
20260505083020 12 27 6.4 16.1 0.00 0.00 0.00 72 1017.2
20260505081520 12 28 4.8 16.1 0.00 0.00 0.00 72 1017.1
20260505080017 12 310 3.2 14.5 0.00 0.00 0.00 73 1017.2
20260505074517 12 50 3.2 11.3 0.00 0.00 0.00 75 1017.2
20260505073029 12 21 4.8 9.7 0.00 0.00 0.00 78 1017.1
20260505071519 12 360 3.2 9.7 0.00 0.00 0.00 79 1017.1
20260505070015 13 26 1.6 6.4 0.00 0.00 0.00 79 1016.9
20260505064531 13 19 1.6 4.8 0.00 0.00 0.00 80 1016.8
20260505063013 13 15 0.0 6.4 0.00 0.00 0.00 79 1016.9
20260505061527 13 310 3.2 11.3 0.00 0.00 0.00 78 1016.6
20260505060111 13 330 1.6 11.3 0.00 0.00 0.00 77 1016.7
20260505054559 13 319 1.6 14.5 0.00 0.00 0.00 77 1016.9
20260505053048 13 311 1.6 8.0 0.00 0.00 0.00 76 1017.0
20260505051537 13 285 3.2 12.9 0.00 0.00 0.00 75 1017.2
20260505041530 14 338 3.2 14.5 0.00 0.00 0.00 73 1016.8
20260505040030 15 19 4.8 16.1 0.00 0.00 0.00 71 1016.5
20260505034529 15 355 1.6 9.7 0.00 0.00 0.00 68 1016.3
20260505033029 15 254 3.2 8.0 0.00 0.00 0.00 68 1016.0
20260505031540 15 34 3.2 9.7 0.00 0.00 0.00 69 1015.9
20260505030026 15 23 3.2 12.9 0.00 0.00 0.00 69 1015.8
20260505024534 15 355 6.4 16.1 0.00 0.00 0.00 69 1015.9
20260505023028 15 20 4.8 22.5 0.00 0.00 0.00 67 1015.8
20260505021526 16 22 8.0 17.7 0.00 0.00 0.00 67 1015.6
20260505020030 16 15 3.2 16.1 0.00 0.00 0.00 66 1015.7
20260505014528 16 96 3.2 17.7 0.00 0.00 0.00 64 1015.7
20260505013024 16 355 4.8 16.1 0.00 0.00 0.00 62 1015.6
20260505011552 17 291 8.0 16.1 0.00 0.00 0.00 62 1015.8
20260505010050 17 328 6.4 14.5 0.00 0.00 0.00 62 1015.8
20260505004555 16 336 9.7 17.7 0.00 0.00 0.00 63 1016.0
20260505003048 16 61 8.0 16.1 0.00 0.00 0.00 64 1016.0
20260505001551 17 329 4.8 14.5 0.00 0.00 0.00 64 1015.9